Location: ????????
(60.5616°N, 46.8254°E)
Time: 23:53:22
(UTC+00:00)

CENTAUR R/B - Pass Details

Date: 18 February 2020
Orbit: 766 x 1422 km, 63.5° (Epoch: 06 April)

Event Time Altitude Azimuth Distance (km) Brightness Sun altitude
Rises 15:22:38 0° 263° (W) 3,697 7.6 -12.1°
Reaches altitude 10° 15:25:04 10° 265° (W) 2,835 6.5 -12.4°
Maximum altitude 15:31:52 74° 351° (N) 1,213 3.0 -13.2°
Enters shadow 15:38:19 17° 75° (ENE) 2,778 4.3 -14.0°
